Regional Weather Roundup
Issued by NWS

Home | Current Version | Previous Version | Graphics & Text | Print | Product List | Glossary On
Versions: 1 2 3 4 5 6 7 8 9 10 11 12 13 14 15 16 17 18 19 20 21 22 23 24 25 26 27 28 29 30 31 32 33 34 35 36 37 38 39 40 41 42 43 44 45 46 47 48 49 50
000
ASUS45 KABQ 030610
RWRNM
NEW MEXICO REGIONAL WEATHER ROUNDUP
NATIONAL WEATHER SERVICE ALBUQUERQUE NM
1200 AM MDT MON AUG 03 2015

NOTE: "FAIR" MEANS FEW OR NO CLOUDS BELOW 12,000 FEET AGL WITH NO
       SIGNIFICANT WEATHER OR OBSTRUCTIONS TO VISION.

      THIS PRODUCT IS RELEASED AS TWO VERSIONS.  ONE VERSION NEAR
      THE TOP OF THE HOUR CONTAINING PRELIMINARY DATA FROM ALBUQUERQUE
      AND OTHER STATIONS.  A FINAL VERSION WITH ADDITIONAL DATA IS
      ISSUED ABOUT 10 MINUTES AFTER THE HOUR.

NMZ501-503-504-510>518-030700-
NORTHWEST PLATEAU/NORTHCENTRAL MOUNTAINS

CITY           SKY/WX    TMP DP  RH WIND       PRES   REMARKS
FARMINGTON     MOCLDY    62  59  90 W3        30.16R
6HR MIN TEMP:  62; 6HR MAX TEMP:  76; 6HR PCP:  0.13;

LOS ALAMOS     CLOUDY    62  52  71 N9        30.27S
SANTA FE       CLOUDY    64  55  72 N10       30.21S
6HR MIN TEMP:  64; 6HR MAX TEMP:  77;

TAOS           CLOUDY    59  48  67 N5        30.29S
ANGEL FIRE     DRIZZLE   52  51  96 CALM      30.37F

$$
NMZ402-403-502-505>509-030700-
WESTCENTRAL MOUNTAINS/SOUTHWEST MOUNTAINS

CITY           SKY/WX    TMP DP  RH WIND       PRES   REMARKS
GALLUP         CLEAR     56  54  93 CALM      30.23F
6HR MIN TEMP:  56; 6HR MAX TEMP:  79; 6HR PCP:  0.08;

GRANTS         CLOUDY    60  58  94 CALM      30.28S
SILVER CITY      N/A     66  59  77 N8        30.17S

$$
NMZ407-409-411-412-030700-
SOUTHERN DESERTS

CITY           SKY/WX    TMP DP  RH WIND       PRES   REMARKS
LORDSBURG      MOCLDY    77  55  47 S10       30.07R
DEMING         CLOUDY    74  61  63 W3        30.07R
6HR MIN TEMP:  71; 6HR MAX TEMP:  94; 6HR PCP:  0.04;

LAS CRUCES     CLOUDY    71  64  79 CALM      30.12S
HOLLOMAN AFB   CLOUDY    77  59  53 SE10      30.05R
ALAMOGORDO     PTCLDY    75  57  53 SE15      30.08S
T OR C         PTCLDY    72  59  63 NW8       30.09R
6HR MIN TEMP:  72; 6HR MAX TEMP:  84; 6HR PCP: TRACE;


$$
NMZ519>523-030700-
CENTRAL VALLEYS/CENTRAL HIGHLANDS

CITY           SKY/WX    TMP DP  RH WIND       PRES   REMARKS
ALBUQUERQUE    LGT RAIN  71  58  63 W7        30.18R
6HR MIN TEMP:  71; 6HR MAX TEMP:  78; 6HR PCP: TRACE;

DOUBLE EAGLE   CLOUDY    66  59  78 NW3       30.20S
MORIARTY ARPT    N/A     66  55  67 E5        30.22S
6HR MIN TEMP:  66; 6HR MAX TEMP:  78;

CLINES CORNERS CLOUDY    62  54  74 E8        30.25S
6HR MIN TEMP:  61; 6HR MAX TEMP:  70;

BELEN          CLOUDY    68  60  75 NW8       30.16R
6HR MIN TEMP:  67; 6HR MAX TEMP:  73;

SOCORRO        FAIR      69  63  79 N7        30.11R
6HR MIN TEMP:  69; 6HR MAX TEMP:  79; 6HR PCP:  0.04;


$$
NMZ524>526-539-540-030700-
SOUTHCENTRAL MOUNTAINS

CITY           SKY/WX    TMP DP  RH WIND       PRES   REMARKS
RUIDOSO          N/A    N/A N/A N/A MISG        N/A

$$
NMZ527>531-030700-
NORTHEAST HIGHLANDS/NORTHEAST PLAINS

CITY           SKY/WX    TMP DP  RH WIND       PRES   REMARKS
RATON          NOT AVBL
CLAYTON        CLOUDY    72  58  61 S9        30.10R
6HR MIN TEMP:  68; 6HR MAX TEMP:  77; 6HR PCP:  0.01;


$$
NMZ532>537-030700-
EASTCENTRAL PLAINS

CITY           SKY/WX    TMP DP  RH WIND       PRES   REMARKS
TUCUMCARI      CLOUDY    69  64  84 CALM      30.04F
                                      6HR PCP:  0.14;

CANNON AFB     CLOUDY    71  62  71 N10       30.07S
6HR MIN TEMP:  70; 6HR MAX TEMP:  80; 6HR PCP:  0.01;

CLOVIS AIRPORT CLOUDY    70  63  78 N12       30.09R

$$
NMZ028-029-538-030700-
SOUTHEAST PLAINS

CITY           SKY/WX    TMP DP  RH WIND       PRES   REMARKS
ROSWELL        PTCLDY    80  58  46 NE3       30.00R
6HR MIN TEMP:  78; 6HR MAX TEMP:  95;

ARTESIA        MOCLDY    79  61  53 SE9       30.00R
CARLSBAD       LGT RAIN  83  59  44 SW6       29.99R
6HR MIN TEMP:  83; 6HR MAX TEMP:  96; 6HR PCP: TRACE;

HOBBS            N/A    N/A N/A N/A MISG        N/A


$$


USA.gov is the U.S. government's official web portal to all federal, state and local government web resources and services.